Location: Unspecified
(0.0000°N, 0.0000°E)
Time: 06:02:26
(UTC+00:00)

Vanguard 3 - Pass Details

Date: 10 December 2017
Orbit: 508 x 3264 km, 33.3° (Epoch: 22 July)

Event Time Altitude Azimuth Distance (km) Brightness Sun altitude
Rises 07:17:12 0° 224° (SW) 6,529 11.6 19.4°
Reaches altitude 10° 07:22:43 10° 216° (SW) 5,089 11.2 20.6°
Maximum altitude 07:34:30 35° 156° (SSE) 2,449 10.6 23.3°
Drops below altitude 10° 07:41:38 10° 92° (E) 3,077 11.5 24.9°
Sets 07:44:05 0° 82° (E) 3,742 11.4 25.5°
